User: anonymous   Login
Location: Mount Graham
(32.7016°N, 109.8912°W)
Time: 00:41:24
(UTC-07:00)
Language:

Cosmos 1340 - Orbit

View from above orbital plane
View from above orbital plane
View from above satellite
View from above satellite

Ground track
Ground track

The orbit data is extracted from the following two-line orbital elements,

1 13067U 82013A   17058.67998676  .00001141  00000-0  53125-4 0  9997
2 13067  81.1844 261.9963 0003480 163.1537 196.9810 15.19141775911187
Epoch (UTC): 27 February 2017 16:19:10
Eccentricity: 0.0003480
inclination: 81.1844°
perigee height: 506 km
apogee height: 511 km
right ascension of ascending node: 261.9963°
argument of perigee: 163.1537°
revolutions per day: 15.19141775
mean anomaly at epoch: 196.9810°
orbit number at epoch: 91118

The dashed part of the orbit path shows where the satellite is in the earth's shadow,  

DLR